Regional Weather Roundup
Issued by NWS

Home | Current Version | Previous Version | Graphics & Text | Print | Product List | Glossary On
Versions: 1 2 3 4 5 6 7 8 9 10 11 12 13 14 15 16 17 18 19 20 21 22 23 24 25 26 27 28 29 30 31 32 33 34 35 36 37 38 39 40 41 42 43 44 45 46 47 48 49 50
000
ASUS43 KMPX 030501
RWRMN
WEATHER ROUNDUP FOR MINNESOTA
NATIONAL WEATHER SERVICE TWIN CITIES/CHANHASSEN MN
1200 AM CDT TUE MAY 03 2016


NOTE: "FAIR" INDICATES FEW OR NO CLOUDS BELOW 12,000 FEET WITH NO
SIGNIFICANT WEATHER AND/OR OBSTRUCTIONS TO VISIBILITY. N/A MEANS
CURRENT SKY AND/OR WEATHER CONDITIONS ARE NOT AVAILABLE.

MNZ060>063-068>070-030600-
   Twin Cities Metro

CITY           SKY/WX    TMP DP  RH WIND       PRES   REMARKS
TWIN CITIES    CLEAR     56  34  43 SW7       29.99F
ST PAUL        CLEAR     49  39  68 CALM      30.00S
CRYSTAL        CLEAR     51  36  56 CALM      29.98F
BLAINE         CLEAR     48  37  66 CALM      29.99S
EDEN PRAIRIE   CLEAR     54  32  43 SW3       29.99S
SOUTH ST PAUL  CLEAR     51  35  53 SW5       29.99S
LAKE ELMO      FAIR      45  37  76 CALM      30.00S
$$
MNZ001>005-007-008-013>017-022>024-027-028-030600-
   Northwest Minnesota

CITY           SKY/WX    TMP DP  RH WIND       PRES   REMARKS
BEMIDJI        CLEAR     45  34  65 CALM      29.94S
HALLOCK        CLOUDY    55  30  38 SW12      29.91F
ROSEAU         CLOUDY    54  37  54 SW7       29.90F
WARROAD        CLOUDY    55  36  47 SW7       29.89F
THIEF RVR FALL CLOUDY    55  30  38 W10       29.95S
CROOKSTON      CLOUDY    55  37  50 W12       29.96S
FOSSTON        CLOUDY    48  34  57 W7        29.96S
DETROIT LAKES  CLEAR     54  36  50 NW7       29.99S
MOORHEAD       CLOUDY    55  37  50 W8        29.98S
PARK RAPIDS    CLEAR     48  30  49 W6        29.95S
MAHNOMEN       FAIR      53  35  51 W9        29.97R
$$
MNZ006-009>011-018-025>026-030600-
   North Central Minnesota

CITY           SKY/WX    TMP DP  RH WIND       PRES   REMARKS
BAUDETTE       CLOUDY    49  30  48 SW6       29.89F
FLAG ISLAND    CLOUDY    55  30  38 W10       29.85F
INTL FALLS     CLOUDY    38  33  82 SW3       29.88F
WASKISH        CLOUDY    45  39  81 CALM      29.91F
BIG FORK       CLOUDY    43  32  65 CALM      29.92F
LONGVILLE      CLEAR     41  36  81 CALM      29.94F
GRAND RAPIDS   PTCLDY    52  30  43 SW6       29.95S
CRANE LAKE     CLEAR     36  30  80 CALM      29.91F
ORR            CLEAR     50  21  32 CALM      29.89F
COOK           CLEAR     43  28  56 CALM      29.92S
WALKER         FAIR      53  29  40 W5        29.95S
$$
MNZ012-019>021-037-030600-
   Northeast Minnesota

CITY           SKY/WX    TMP DP  RH WIND       PRES   REMARKS
DULUTH         PTCLDY    48  30  49 SW6       29.94F
ELY            PTCLDY    48  32  53 SW3       29.91F
HIBBING        CLEAR     36  30  79 SW3       29.92F
EVELETH        CLEAR     41  32  70 W5        29.93F
DULUTH HARBOR  CLEAR     43  37  81 SW3       29.96F
TWO HARBORS    PTCLDY    41  34  75 CALM      29.92F
SILVER BAY     PTCLDY    37  32  81 CALM      29.92F
GRAND MARAIS     N/A     38  32  79 CALM      29.92F
G MARAIS ARPRT CLOUDY    43  27  52 SW3       29.93F
$$
MNZ029>031-032-039>041-046>048-054>057-064-030600-
   West Central Minnesota

CITY           SKY/WX    TMP DP  RH WIND       PRES   REMARKS
FERGUS FALLS   CLEAR     54  36  50 N7        29.96S
WHEATON        CLEAR     55  39  54 CALM      30.00F
MORRIS         CLEAR     50  34  53 CALM      29.98S
ALEXANDRIA     CLEAR     47  32  56 SW7       29.99F
ELBOW LAKE     FAIR      50  32  49 NW6       29.99S
WADENA         CLEAR     46  32  57 SW3       29.97S
GLENWOOD       CLEAR     52  32  46 S5        29.99F
APPLETON       CLEAR     48  36  61 CALM      29.98F
BENSON         CLEAR     43  34  70 CALM      29.99S
ORTONVILLE     CLEAR     52  36  54 W6        29.99S
MADISON        CLEAR     48  36  61 CALM      30.00R
WILLMAR        FAIR      52  36  54 CALM      30.01S
$$
MNZ033>034-036-042>043-049>051-058-059-030600-
   Central Minnesota

CITY           SKY/WX    TMP DP  RH WIND       PRES   REMARKS
ST CLOUD       CLEAR     46  35  65 CALM      29.98F
SAUK CENTRE    FAIR      44  33  65 CALM      29.99S
PAYNESVILLE    CLEAR     46  36  67 S5        29.99F
AITKIN         CLEAR     52  28  40 SW3       29.94F
PINE RIVER     CLEAR     43  36  75 CALM      29.99S
BRAINERD       CLEAR     49  32  52 SW3       29.97S
STAPLES        CLEAR     50  28  43 SW5       29.97S
LONG PRAIRIE   FAIR      45  37  76 CALM      29.99F
LITTLE FALLS   CLEAR     45  32  61 CALM      29.98F
LITCHFIELD     CLEAR     54  37  54 CALM      30.00S
BUFFALO        CLEAR     48  37  65 CALM      30.00F
MAPLE LAKE     CLEAR     52  37  57 S3        30.00S
HUTCHINSON     CLOUDY    52  39  61 SW3       30.01S
$$
MNZ037-044-045-052-053-030600-
   East Central Minnesota

CITY           SKY/WX    TMP DP  RH WIND       PRES   REMARKS
PRINCETON      CLEAR     43  36  75 CALM      29.99S
MORA           CLEAR     43  36  75 CALM      29.99F
CAMBRIDGE      CLEAR     46  36  66 CALM      29.97S
RUSH CITY      PTCLDY    44  36  74 CALM      29.98F
MOOSE LAKE     CLEAR     41  34  75 W5        29.94F
HINCKLEY       FAIR      41  37  87 CALM      29.97F
CLOQUET        CLEAR     43  32  65 CALM      29.95F
MCGREGOR       CLEAR     48  34  57 SW3       29.95F
$$
MNZ071>073-080-081-089-090-097-098-030600-
   Southwest Minnesota

CITY           SKY/WX    TMP DP  RH WIND       PRES   REMARKS
MONTEVIDEO     CLEAR     52  32  46 SW5       30.01S
GRANITE FALLS  CLEAR     55  38  52 SW7       30.01S
CANBY          CLEAR     54  39  56 SW6       30.01S
MARSHALL       CLEAR     52  37  56 SW13      30.00F
REDWOOD FALLS  CLEAR     50  37  61 SW8       30.00F
OLIVIA         CLEAR     52  37  58 S6        29.99S
PIPESTONE      CLEAR     46  39  76 CALM      30.03F
WINDOM         CLEAR     50  39  66 CALM      30.03S
JACKSON        CLEAR     50  37  62 S6        30.04S
TRACY          CLEAR     50  41  70 SW8       30.01F
SLAYTON        CLEAR     49  38  64 W6        30.04S
$$
MNZ065>067-074>077-082>085-091>093-030600-
   South Central Minnesota

CITY           SKY/WX    TMP DP  RH WIND       PRES   REMARKS
MANKATO        CLEAR     54  36  50 SW6       30.01F
NEW ULM        CLEAR     52  37  58 SW7       30.01F
ST JAMES       CLEAR     46  37  71 S7        30.03F
FAIRMONT       CLEAR     48  27  43 CALM      30.02F
GLENCOE        CLEAR     52  40  62 CALM      30.00S
FARIBAULT      CLEAR     50  37  62 SW3       30.01F
OWATONNA       CLEAR     48  37  66 S3        30.01F
WASECA         CLEAR     45  36  70 CALM      30.03S
ALBERT LEA     CLEAR     48  45  87 SW3       30.02F
$$
MNZ078>079-086>088-094>096-030600-
   Southeast Minnesota

CITY           SKY/WX    TMP DP  RH WIND       PRES   REMARKS
ROCHESTER      PTCLDY    47  42  83 SW8       30.02F
RED WING       CLEAR     45  37  76 CALM      29.99S
STANTON        CLEAR     45  36  70 S3        29.99S
DODGE CENTER   PTCLDY    45  37  76 SW7       30.01F
WINONA         PTCLDY    50  41  71 CALM      30.00F
AUSTIN         CLEAR     46  39  76 SW5       30.02F
PRESTON        CLEAR     47  38  72 SW7       30.02F
$$
ABBREVIATIONS USED IN REMARKS
   TC - TEMPERATURES IN CELSIUS
  WCI - WIND CHILL INDEX
   HX - HEAT INDEX
  VSB - VISIBILITY
$$



USA.gov is the U.S. government's official web portal to all federal, state and local government web resources and services.